Home   Weather   Chelyabinsk   Past weeks
Flag for Russia

Past Weather in Chelyabinsk, Russia — Yesterday and Last 2 Weeks

Now
23 °F

Ice fog.


Feels Like: 23 °F
Forecast: 36 / 20 °F
Wind: 1 mph from Southeast

Location: Chelyabinsk-Balandino

Current Time: Mar 23, 2019 at 4:21:42 am

Latest Report: Mar 23, 2019 at 3:30 am


Visibility: 2 mi

Pressure: 29.98 "Hg

Humidity: 93%

Dew Point: 21 °F

Location of ChelyabinskLocation

Past Weather in Chelyabinsk — Graph

°F

Chelyabinsk Temperature Yesterday

Maximum temperature yesterday: 39 °F (at 2:30 pm)
Minimum temperature yesterday: 27 °F (at 11:30 pm)
Average temperature yesterday: 34 °F

High & Low Weather Summary for the Past Weeks

 TemperatureHumidityPressure
High43 °F (Mar 11, 2:00 pm)100% (Mar 11, 6:30 am)30.42 "Hg (Mar 11, 6:30 am)
Low7 °F (Mar 20, 5:30 am)27% (Mar 9, 3:00 pm)29.39 "Hg (Mar 14, 6:30 pm)
Average28 °F71%30.04 "Hg
* Reported Mar 8 3:00 am — Mar 23 3:00 am, Chelyabinsk. Weather by CustomWeather, © 2019

Note: Actual official high and low records may vary slightly from our data, if they occured in-between our weather recording intervals... More about our weather records

Advertising

Chelyabinsk Weather History for the Previous 24 Hours

Scroll right to see more
 ConditionsComfort  
Time TempWeatherWind HumidityBarometerVisibility
3:00 am
Sat, Mar 23
23 °FIce fog.1 mph93%29.98 "Hg2 mi
2:30 am23 °FIce fog.1 mph93%29.98 "Hg2 mi
2:00 am21 °FIce fog.1 mph100%29.98 "Hg3 mi
1:30 am23 °FIce fog.3 mph93%29.98 "Hg3 mi
1:00 am25 °FIce fog.3 mph93%29.98 "Hg3 mi
12:30 am25 °FIce fog.3 mph86%29.98 "Hg3 mi
12:00 am27 °FIce fog.3 mph86%29.98 "Hg3 mi
11:30 pm
Fri, Mar 22
27 °FIce fog.1 mph86%29.98 "Hg3 mi
11:00 pm28 °FIce fog.3 mph80%29.98 "Hg3 mi
10:30 pm28 °FClear.6 mph80%29.98 "Hg10 mi
10:00 pm30 °FClear.6 mph80%29.98 "Hg10 mi
9:30 pm30 °FClear.6 mph80%29.98 "Hg10 mi
9:00 pm32 °FClear.6 mph75%29.98 "Hg10 mi
8:30 pm34 °FClear.6 mph70%29.95 "Hg10 mi
8:00 pm34 °FSunny.6 mph70%29.95 "Hg10 mi
7:30 pm36 °FSunny.6 mph65%29.95 "Hg10 mi
7:00 pm36 °FSunny.6 mph65%29.95 "Hg10 mi
6:30 pm37 °FSunny.8 mph60%29.95 "Hg10 mi
6:00 pm37 °FSunny.8 mph65%29.95 "Hg10 mi
5:30 pm37 °FSunny.8 mph65%29.95 "Hg10 mi
5:00 pm39 °FSunny.6 mph61%29.95 "Hg10 mi
4:30 pm39 °FSunny.6 mph61%29.95 "Hg10 mi
4:00 pm39 °FSunny.10 mph56%29.95 "Hg10 mi
3:30 pm39 °FSunny.10 mph56%29.95 "Hg10 mi
3:00 pm39 °FSunny.8 mph56%29.95 "Hg10 mi
2:30 pm39 °FSunny.8 mph61%29.98 "Hg10 mi
2:00 pm37 °FPassing clouds.6 mph65%29.98 "HgN/A
1:30 pm37 °FPassing clouds.6 mph65%29.98 "HgN/A
1:00 pm37 °FSunny.8 mph70%29.98 "Hg10 mi
12:30 pm37 °FSunny.6 mph70%29.98 "Hg10 mi
12:00 pm36 °FSunny.8 mph75%30.01 "Hg10 mi
11:30 am36 °FSunny.3 mph75%30.01 "Hg10 mi
11:00 am34 °FSunny.6 mph81%30.01 "Hg10 mi
10:30 am34 °FSunny.3 mph81%30.01 "Hg10 mi
10:00 am34 °FSunny.3 mph81%30.01 "Hg10 mi
9:30 am34 °FClear.3 mph81%30.01 "Hg4 mi
9:00 am32 °FIce fog.3 mph87%30.01 "Hg3 mi
8:30 am32 °FIce fog.1 mph87%30.01 "Hg3 mi
8:00 am30 °FIce fog.3 mph93%30.01 "Hg3 mi
7:30 am28 °FClear.1 mph93%30.01 "Hg4 mi
7:00 am28 °FClear.3 mph86%30.01 "Hg4 mi
6:30 am30 °FClear.3 mph86%30.01 "Hg4 mi
5:30 am30 °FClear.6 mph86%30.01 "Hg10 mi
5:00 am30 °FClear.3 mph86%30.01 "Hg10 mi
4:30 am32 °FClear.1 mph87%30.01 "Hg10 mi
4:00 am32 °FClear.1 mph87%30.01 "Hg10 mi
Weather by CustomWeather, © 2019

See weather overview